User: anonymous   Login
Location: Unspecified
(0.0000°N, 0.0000°E)
Time: 21:20:50
(UTC+00:00)
Language:

KMS 4 - Orbit

View from above orbital plane
View from above orbital plane
View from above satellite
View from above satellite

Ground track
Ground track

The orbit data is extracted from the following two-line orbital elements,

1 41332U 16009A   17141.90219534 +.00002758 +00000-0 +95315-4 0  9995
2 41332 097.4605 199.8313 0026945 111.4208 248.9910 15.30458211071802
Epoch (UTC): 21 May 2017 21:39:09
Eccentricity: 0.0026945
inclination: 97.4605°
perigee height: 456 km
apogee height: 493 km
right ascension of ascending node: 199.8313°
argument of perigee: 111.4208°
revolutions per day: 15.30458211
mean anomaly at epoch: 248.9910°
orbit number at epoch: 7180

The dashed part of the orbit path shows where the satellite is in the earth's shadow,  

DLR